Time,TemperatureF,DewpointF,PressureIn,WindDirection,WindDirectionDegrees,WindSpeedMPH,WindSpeedGustMPH,Humidity,HourlyPrecipIn,Conditions,Clouds,dailyrainin,SoftwareType,DateUTC
2013-05-19 00:01:00,64.8,57.8,29.91,SSW,203,1.6,2.5,78,0.00,,,0.00,WUHU216HW,2013-05-19 05:01:00,
2013-05-19 00:06:00,64.8,58.2,29.90,South,180,1.1,3.1,79,0.00,,,0.00,WUHU216HW,2013-05-19 05:06:00,
2013-05-19 00:11:00,64.6,57.6,29.90,SSE,158,1.3,3.1,78,0.00,,,0.00,WUHU216HW,2013-05-19 05:11:00,
2013-05-19 00:16:00,64.4,57.4,29.90,South,180,1.8,2.5,78,0.00,,,0.00,WUHU216HW,2013-05-19 05:16:00,
2013-05-19 00:21:00,64.1,57.4,29.90,SE,135,0.7,2.5,79,0.00,,,0.00,WUHU216HW,2013-05-19 05:21:00,
2013-05-19 00:26:00,63.9,57.2,29.90,South,180,0.7,2.2,79,0.00,,,0.00,WUHU216HW,2013-05-19 05:26:00,
2013-05-19 00:31:00,63.5,56.9,29.90,SSW,203,0.4,2.2,79,0.00,,,0.00,WUHU216HW,2013-05-19 05:31:00,
2013-05-19 00:36:00,63.5,57.2,29.90,South,180,0.7,1.8,80,0.00,,,0.00,WUHU216HW,2013-05-19 05:36:00,
2013-05-19 00:41:00,63.2,56.5,29.90,South,180,2.2,2.5,79,0.00,,,0.00,WUHU216HW,2013-05-19 05:41:00,
2013-05-19 00:46:00,63.0,56.3,29.90,SSE,158,0.0,2.5,79,0.00,,,0.00,WUHU216HW,2013-05-19 05:46:00,
2013-05-19 00:51:00,63.0,56.3,29.90,SSW,203,0.9,2.5,79,0.00,,,0.00,WUHU216HW,2013-05-19 05:51:00,
2013-05-19 00:56:00,62.8,56.2,29.90,SSE,158,1.6,2.2,79,0.00,,,0.00,WUHU216HW,2013-05-19 05:56:00,
2013-05-19 01:01:00,62.6,56.0,29.90,South,180,0.4,2.2,79,0.00,,,0.00,WUHU216HW,2013-05-19 06:01:00,
2013-05-19 01:06:00,62.3,55.6,29.90,ESE,113,0.0,1.6,79,0.00,,,0.00,WUHU216HW,2013-05-19 06:06:00,
2013-05-19 01:11:00,62.3,56.0,29.90,SSE,158,0.0,1.1,80,0.00,,,0.00,WUHU216HW,2013-05-19 06:11:00,
2013-05-19 01:16:00,62.1,55.9,29.90,SSE,158,0.0,1.1,80,0.00,,,0.00,WUHU216HW,2013-05-19 06:16:00,
2013-05-19 01:21:00,61.7,55.5,29.90,SSE,158,0.0,0.0,80,0.00,,,0.00,WUHU216HW,2013-05-19 06:21:00,
2013-05-19 01:26:00,61.4,55.2,29.90,SSE,158,1.1,1.1,80,0.00,,,0.00,WUHU216HW,2013-05-19 06:26:00,
2013-05-19 01:31:00,61.2,55.4,29.90,ENE,68,0.0,1.1,81,0.00,,,0.00,WUHU216HW,2013-05-19 06:31:00,
2013-05-19 01:36:00,61.2,55.4,29.90,NE,45,0.0,1.1,81,0.00,,,0.00,WUHU216HW,2013-05-19 06:36:00,
2013-05-19 01:41:00,61.2,55.7,29.90,SSE,158,0.4,0.4,82,0.00,,,0.00,WUHU216HW,2013-05-19 06:41:00,
2013-05-19 01:46:00,61.0,55.5,29.90,SSE,158,0.0,0.4,82,0.00,,,0.00,WUHU216HW,2013-05-19 06:46:00,
2013-05-19 01:51:00,60.8,55.4,29.90,SSE,158,0.0,0.7,82,0.00,,,0.00,WUHU216HW,2013-05-19 06:51:00,
2013-05-19 01:56:00,60.8,55.7,29.89,NNE,23,0.0,0.7,83,0.00,,,0.00,WUHU216HW,2013-05-19 06:56:00,
2013-05-19 02:01:00,60.8,55.7,29.89,NE,45,0.0,0.0,83,0.00,,,0.00,WUHU216HW,2013-05-19 07:01:00,
2013-05-19 02:06:00,60.7,55.5,29.89,NE,45,0.0,0.0,83,0.00,,,0.00,WUHU216HW,2013-05-19 07:06:00,
2013-05-19 02:11:00,60.5,55.4,29.89,South,180,0.0,0.2,83,0.00,,,0.00,WUHU216HW,2013-05-19 07:11:00,
2013-05-19 02:16:00,60.3,55.2,29.89,South,180,0.0,0.2,83,0.00,,,0.00,WUHU216HW,2013-05-19 07:16:00,
2013-05-19 02:21:00,60.1,55.0,29.89,SE,135,0.2,0.4,83,0.00,,,0.00,WUHU216HW,2013-05-19 07:21:00,
2013-05-19 02:26:00,60.1,55.0,29.89,SE,135,0.0,0.4,83,0.00,,,0.00,WUHU216HW,2013-05-19 07:26:00,
2013-05-19 02:31:00,60.1,55.0,29.89,ESE,113,0.4,0.7,83,0.00,,,0.00,WUHU216HW,2013-05-19 07:31:00,
2013-05-19 02:36:00,60.1,55.3,29.89,SE,135,0.0,1.3,84,0.00,,,0.00,WUHU216HW,2013-05-19 07:36:00,
2013-05-19 02:41:00,60.1,55.0,29.90,ESE,113,0.0,1.3,83,0.00,,,0.00,WUHU216HW,2013-05-19 07:41:00,
2013-05-19 02:46:00,60.1,55.3,29.90,South,180,0.9,1.1,84,0.00,,,0.00,WUHU216HW,2013-05-19 07:46:00,
2013-05-19 02:51:00,60.1,55.3,29.89,SSE,158,0.0,1.1,84,0.00,,,0.00,WUHU216HW,2013-05-19 07:51:00,
2013-05-19 02:56:00,60.1,55.3,29.89,South,180,0.0,1.1,84,0.00,,,0.00,WUHU216HW,2013-05-19 07:56:00,
2013-05-19 03:01:00,60.1,55.6,29.89,SSE,158,0.4,0.9,85,0.00,,,0.00,WUHU216HW,2013-05-19 08:01:00,
2013-05-19 03:06:00,60.1,55.6,29.89,SSE,158,0.2,1.8,85,0.00,,,0.00,WUHU216HW,2013-05-19 08:06:00,
2013-05-19 03:11:00,60.5,56.0,29.89,SSW,203,1.6,1.8,85,0.00,,,0.00,WUHU216HW,2013-05-19 08:11:00,
2013-05-19 03:16:00,60.5,56.0,29.89,SSE,158,1.6,2.2,85,0.00,,,0.00,WUHU216HW,2013-05-19 08:16:00,
2013-05-19 03:21:00,60.7,56.2,29.89,SSE,158,0.4,2.2,85,0.00,,,0.00,WUHU216HW,2013-05-19 08:21:00,
2013-05-19 03:26:00,60.5,56.0,29.90,South,180,0.9,1.3,85,0.00,,,0.00,WUHU216HW,2013-05-19 08:26:00,
2013-05-19 03:31:00,60.5,55.6,29.90,SW,225,0.7,1.1,84,0.00,,,0.00,WUHU216HW,2013-05-19 08:31:00,
2013-05-19 03:36:00,60.3,55.8,29.90,SSE,158,0.0,0.9,85,0.00,,,0.00,WUHU216HW,2013-05-19 08:36:00,
2013-05-19 03:41:00,60.5,56.0,29.91,SSE,158,1.1,5.1,85,0.00,,,0.00,WUHU216HW,2013-05-19 08:41:00,
2013-05-19 03:46:00,60.7,56.2,29.91,South,180,0.7,5.1,85,0.00,,,0.00,WUHU216HW,2013-05-19 08:46:00,
2013-05-19 03:51:00,60.5,56.0,29.90,South,180,0.4,1.6,85,0.00,,,0.00,WUHU216HW,2013-05-19 08:51:00,
2013-05-19 03:56:00,60.3,55.4,29.90,SSW,203,1.8,1.8,84,0.00,,,0.00,WUHU216HW,2013-05-19 08:56:00,
2013-05-19 04:01:00,60.3,55.8,29.91,SSW,203,1.1,2.2,85,0.00,,,0.00,WUHU216HW,2013-05-19 09:01:00,
2013-05-19 04:06:00,60.3,55.8,29.91,South,180,0.4,2.2,85,0.00,,,0.00,WUHU216HW,2013-05-19 09:06:00,
2013-05-19 04:11:00,60.1,55.6,29.91,South,180,0.0,1.3,85,0.00,,,0.00,WUHU216HW,2013-05-19 09:11:00,
2013-05-19 04:16:00,60.1,55.6,29.91,SSE,158,0.0,0.4,85,0.00,,,0.00,WUHU216HW,2013-05-19 09:16:00,
2013-05-19 04:21:00,59.9,55.4,29.91,SSE,158,0.0,0.4,85,0.00,,,0.00,WUHU216HW,2013-05-19 09:21:00,
2013-05-19 04:26:00,59.8,55.3,29.90,SSE,158,0.0,0.0,85,0.00,,,0.00,WUHU216HW,2013-05-19 09:26:00,
2013-05-19 04:31:00,59.8,55.6,29.90,NNW,338,0.0,0.9,86,0.00,,,0.00,WUHU216HW,2013-05-19 09:31:00,
2013-05-19 04:36:00,59.6,55.5,29.90,NNW,338,0.0,0.9,86,0.00,,,0.00,WUHU216HW,2013-05-19 09:36:00,
2013-05-19 04:41:00,59.4,54.9,29.90,NNW,338,0.0,0.2,85,0.00,,,0.00,WUHU216HW,2013-05-19 09:41:00,
2013-05-19 04:46:00,59.4,55.3,29.90,NNW,338,0.0,0.2,86,0.00,,,0.00,WUHU216HW,2013-05-19 09:46:00,
2013-05-19 04:51:00,59.2,55.1,29.90,NNW,338,0.0,0.0,86,0.00,,,0.00,WUHU216HW,2013-05-19 09:51:00,
2013-05-19 04:56:00,59.0,54.9,29.89,NNE,23,0.0,0.4,86,0.00,,,0.00,WUHU216HW,2013-05-19 09:56:00,
2013-05-19 05:01:00,58.9,55.0,29.89,NNE,23,0.0,0.4,87,0.00,,,0.00,WUHU216HW,2013-05-19 10:01:00,
2013-05-19 05:06:00,59.0,55.2,29.89,NNE,23,0.0,0.0,87,0.00,,,0.00,WUHU216HW,2013-05-19 10:06:00,
2013-05-19 05:11:00,58.9,55.0,29.89,NNE,23,0.0,0.0,87,0.00,,,0.00,WUHU216HW,2013-05-19 10:11:00,
2013-05-19 05:16:00,58.7,54.8,29.89,NNE,23,0.0,0.0,87,0.00,,,0.00,WUHU216HW,2013-05-19 10:16:00,
2013-05-19 05:21:00,58.5,54.6,29.89,NNE,23,0.0,0.0,87,0.00,,,0.00,WUHU216HW,2013-05-19 10:21:00,
2013-05-19 05:26:00,58.3,54.5,29.89,North,0,0.0,0.0,87,0.00,,,0.00,WUHU216HW,2013-05-19 10:26:00,
2013-05-19 05:31:00,58.3,54.5,29.89,North,0,0.0,0.0,87,0.00,,,0.00,WUHU216HW,2013-05-19 10:31:00,
2013-05-19 05:36:00,58.0,54.1,29.89,North,0,0.0,0.0,87,0.00,,,0.00,WUHU216HW,2013-05-19 10:36:00,
2013-05-19 05:41:00,57.8,53.9,29.89,North,0,0.0,0.0,87,0.00,,,0.00,WUHU216HW,2013-05-19 10:41:00,
2013-05-19 05:46:00,57.6,53.7,29.90,North,0,0.0,0.0,87,0.00,,,0.00,WUHU216HW,2013-05-19 10:46:00,
2013-05-19 05:51:00,57.6,53.7,29.90,North,0,0.0,0.0,87,0.00,,,0.00,WUHU216HW,2013-05-19 10:51:00,
2013-05-19 05:56:00,58.0,54.1,29.91,NW,315,0.0,0.0,87,0.00,,,0.00,WUHU216HW,2013-05-19 10:56:00,
2013-05-19 06:01:00,58.0,54.1,29.91,NW,315,0.0,0.0,87,0.00,,,0.00,WUHU216HW,2013-05-19 11:01:00,
2013-05-19 06:06:00,58.0,54.1,29.91,West,270,0.4,0.4,87,0.00,,,0.00,WUHU216HW,2013-05-19 11:06:00,
2013-05-19 06:11:00,58.0,54.5,29.91,West,270,0.0,0.4,88,0.00,,,0.00,WUHU216HW,2013-05-19 11:11:00,
2013-05-19 06:16:00,58.5,55.0,29.91,South,180,0.4,1.8,88,0.00,,,0.00,WUHU216HW,2013-05-19 11:16:00,
2013-05-19 06:21:00,58.9,55.4,29.91,SSE,158,0.4,1.8,88,0.00,,,0.00,WUHU216HW,2013-05-19 11:21:00,
2013-05-19 06:26:00,59.4,55.9,29.91,SSE,158,0.0,1.1,88,0.00,,,0.00,WUHU216HW,2013-05-19 11:26:00,
2013-05-19 06:31:00,59.4,55.9,29.91,SSE,158,0.0,0.4,88,0.00,,,0.00,WUHU216HW,2013-05-19 11:31:00,
2013-05-19 06:36:00,59.4,55.9,29.91,SSE,158,0.0,1.1,88,0.00,,,0.00,WUHU216HW,2013-05-19 11:36:00,
2013-05-19 06:41:00,59.8,56.3,29.91,SSE,158,1.1,1.1,88,0.00,,,0.00,WUHU216HW,2013-05-19 11:41:00,
2013-05-19 06:46:00,60.3,57.1,29.92,South,180,1.1,1.6,89,0.00,,,0.00,WUHU216HW,2013-05-19 11:46:00,
2013-05-19 06:51:00,60.7,57.4,29.91,South,180,1.1,1.6,89,0.00,,,0.00,WUHU216HW,2013-05-19 11:51:00,
2013-05-19 06:56:00,61.2,57.7,29.91,SSE,158,1.8,1.8,88,0.00,,,0.00,WUHU216HW,2013-05-19 11:56:00,
2013-05-19 07:01:00,61.6,58.1,29.91,South,180,1.1,1.8,88,0.00,,,0.00,WUHU216HW,2013-05-19 12:01:00,
2013-05-19 07:06:00,61.9,58.4,29.91,South,180,0.7,1.8,88,0.00,,,0.00,WUHU216HW,2013-05-19 12:06:00,
2013-05-19 07:11:00,62.3,58.7,29.91,South,180,0.7,1.8,88,0.00,,,0.00,WUHU216HW,2013-05-19 12:11:00,
2013-05-19 07:16:00,62.6,58.8,29.91,SE,135,0.2,1.3,87,0.00,,,0.00,WUHU216HW,2013-05-19 12:16:00,
2013-05-19 07:21:00,63.2,59.3,29.91,South,180,0.4,1.8,87,0.00,,,0.00,WUHU216HW,2013-05-19 12:21:00,
2013-05-19 07:26:00,63.7,59.9,29.91,SSE,158,0.9,3.1,87,0.00,,,0.00,WUHU216HW,2013-05-19 12:26:00,
2013-05-19 07:31:00,64.4,60.2,29.90,SSE,158,2.0,3.1,86,0.00,,,0.00,WUHU216HW,2013-05-19 12:31:00,
2013-05-19 07:36:00,65.2,60.6,29.91,South,180,2.5,2.5,85,0.00,,,0.00,WUHU216HW,2013-05-19 12:36:00,
2013-05-19 07:41:00,65.7,61.4,29.91,South,180,1.6,3.8,86,0.00,,,0.00,WUHU216HW,2013-05-19 12:41:00,
2013-05-19 07:46:00,66.2,61.2,29.91,SE,135,1.6,3.8,84,0.00,,,0.00,WUHU216HW,2013-05-19 12:46:00,
2013-05-19 07:51:00,66.8,61.7,29.91,SE,135,2.2,3.1,84,0.00,,,0.00,WUHU216HW,2013-05-19 12:51:00,
2013-05-19 07:56:00,67.5,62.2,29.91,SSW,203,2.2,3.1,83,0.00,,,0.00,WUHU216HW,2013-05-19 12:56:00,
2013-05-19 08:01:00,68.0,62.4,29.90,SSE,158,2.0,4.0,82,0.00,,,0.00,WUHU216HW,2013-05-19 13:01:00,
2013-05-19 08:06:00,68.6,62.6,29.90,South,180,1.8,5.4,81,0.00,,,0.00,WUHU216HW,2013-05-19 13:06:00,
2013-05-19 08:11:00,69.7,63.2,29.90,South,180,4.0,5.4,80,0.00,,,0.00,WUHU216HW,2013-05-19 13:11:00,
2013-05-19 08:16:00,70.6,64.1,29.91,South,180,4.3,4.7,80,0.00,,,0.00,WUHU216HW,2013-05-19 13:16:00,
2013-05-19 08:21:00,71.6,64.0,29.91,SSE,158,1.8,4.7,77,0.00,,,0.00,WUHU216HW,2013-05-19 13:21:00,
2013-05-19 08:26:00,72.4,64.0,29.90,SE,135,2.5,5.6,75,0.00,,,0.00,WUHU216HW,2013-05-19 13:26:00,
2013-05-19 08:31:00,72.7,64.4,29.90,SSW,203,2.7,5.6,75,0.00,,,0.00,WUHU216HW,2013-05-19 13:31:00,
2013-05-19 08:36:00,73.1,64.4,29.91,SSW,203,3.6,4.5,74,0.00,,,0.00,WUHU216HW,2013-05-19 13:36:00,
2013-05-19 08:41:00,73.4,64.4,29.91,SSW,203,2.0,4.9,73,0.00,,,0.00,WUHU216HW,2013-05-19 13:41:00,
2013-05-19 08:46:00,74.0,64.8,29.91,SSE,158,2.0,4.9,73,0.00,,,0.00,WUHU216HW,2013-05-19 13:46:00,
2013-05-19 08:51:00,74.2,64.6,29.91,SE,135,3.4,5.4,72,0.00,,,0.00,WUHU216HW,2013-05-19 13:51:00,
2013-05-19 08:56:00,74.5,64.9,29.91,SSW,203,3.8,6.3,72,0.00,,,0.00,WUHU216HW,2013-05-19 13:56:00,
2013-05-19 09:01:00,74.3,64.4,29.91,SSW,203,2.7,6.5,71,0.00,,,0.00,WUHU216HW,2013-05-19 14:01:00,
2013-05-19 09:06:00,74.3,64.4,29.91,South,180,2.7,6.5,71,0.00,,,0.00,WUHU216HW,2013-05-19 14:06:00,
2013-05-19 09:11:00,74.7,64.7,29.91,South,180,4.5,6.5,71,0.00,,,0.00,WUHU216HW,2013-05-19 14:11:00,
2013-05-19 09:16:00,75.2,65.2,29.91,South,180,2.2,6.5,71,0.00,,,0.00,WUHU216HW,2013-05-19 14:16:00,
2013-05-19 09:21:00,75.6,65.2,29.90,South,180,1.8,5.4,70,0.00,,,0.00,WUHU216HW,2013-05-19 14:21:00,
2013-05-19 09:26:00,76.0,65.1,29.90,South,180,6.5,6.7,69,0.00,,,0.00,WUHU216HW,2013-05-19 14:26:00,
2013-05-19 09:31:00,76.5,65.6,29.90,SSW,203,2.5,6.7,69,0.00,,,0.00,WUHU216HW,2013-05-19 14:31:00,
2013-05-19 09:36:00,77.2,65.9,29.90,SSE,158,2.5,7.4,68,0.00,,,0.00,WUHU216HW,2013-05-19 14:36:00,
2013-05-19 09:41:00,77.4,65.6,29.89,South,180,6.5,7.4,67,0.00,,,0.00,WUHU216HW,2013-05-19 14:41:00,
2013-05-19 09:46:00,77.2,65.4,29.89,WSW,248,2.0,6.5,67,0.00,,,0.00,WUHU216HW,2013-05-19 14:46:00,
2013-05-19 09:51:00,76.7,64.9,29.89,SSE,158,3.1,6.7,67,0.00,,,0.00,WUHU216HW,2013-05-19 14:51:00,
2013-05-19 09:56:00,76.1,64.4,29.89,SSW,203,2.5,7.6,67,0.00,,,0.00,WUHU216HW,2013-05-19 14:56:00,
2013-05-19 10:01:00,76.1,64.4,29.90,SSW,203,3.1,7.6,67,0.00,,,0.00,WUHU216HW,2013-05-19 15:01:00,
2013-05-19 10:05:00,76.5,64.7,29.89,SE,135,5.4,6.0,67,0.00,,,0.00,WUHU216HW,2013-05-19 15:05:00,
2013-05-19 10:10:00,76.7,64.9,29.89,South,180,7.4,7.4,67,0.00,,,0.00,WUHU216HW,2013-05-19 15:10:00,
2013-05-19 10:15:00,77.0,65.7,29.89,SSW,203,2.5,7.4,68,0.00,,,0.00,WUHU216HW,2013-05-19 15:15:00,
2013-05-19 10:20:00,77.8,65.9,29.89,SSW,203,1.8,7.4,67,0.00,,,0.00,WUHU216HW,2013-05-19 15:20:00,
2013-05-19 10:25:00,78.3,66.0,29.89,South,180,3.1,7.2,66,0.00,,,0.00,WUHU216HW,2013-05-19 15:25:00,
2013-05-19 10:30:00,78.3,66.0,29.88,South,180,2.7,5.4,66,0.00,,,0.00,WUHU216HW,2013-05-19 15:30:00,
2013-05-19 10:35:00,78.3,65.5,29.87,West,270,2.0,5.4,65,0.00,,,0.00,WUHU216HW,2013-05-19 15:35:00,
2013-05-19 10:40:00,78.5,65.3,29.86,SSE,158,3.4,6.3,64,0.00,,,0.00,WUHU216HW,2013-05-19 15:40:00,
2013-05-19 10:45:00,78.8,65.6,29.86,SSE,158,2.2,6.3,64,0.00,,,0.00,WUHU216HW,2013-05-19 15:45:00,
2013-05-19 10:50:00,78.5,65.3,29.86,South,180,4.0,7.2,64,0.00,,,0.00,WUHU216HW,2013-05-19 15:50:00,
2013-05-19 10:55:00,78.5,65.7,29.85,WSW,248,2.2,7.2,65,0.00,,,0.00,WUHU216HW,2013-05-19 15:55:00,
2013-05-19 11:00:00,78.3,65.1,29.84,SSE,158,2.0,5.8,64,0.00,,,0.00,WUHU216HW,2013-05-19 16:00:00,
2013-05-19 11:05:00,78.3,65.1,29.84,SSW,203,4.0,6.3,64,0.00,,,0.00,WUHU216HW,2013-05-19 16:05:00,
2013-05-19 11:10:00,77.9,64.8,29.82,East,90,4.0,6.3,64,0.00,,,0.00,WUHU216HW,2013-05-19 16:10:00,
2013-05-19 11:15:00,77.8,64.6,29.81,South,180,4.7,5.8,64,0.00,,,0.00,WUHU216HW,2013-05-19 16:15:00,
2013-05-19 11:20:00,77.6,64.5,29.81,ESE,113,4.3,6.5,64,0.00,,,0.00,WUHU216HW,2013-05-19 16:20:00,
2013-05-19 11:25:00,77.8,64.6,29.81,SSE,158,4.0,7.4,64,0.00,,,0.00,WUHU216HW,2013-05-19 16:25:00,
2013-05-19 11:30:00,78.1,65.0,29.79,SSW,203,4.0,7.4,64,0.00,,,0.00,WUHU216HW,2013-05-19 16:30:00,
2013-05-19 11:35:00,78.7,65.0,29.79,SSE,158,3.4,6.9,63,0.00,,,0.00,WUHU216HW,2013-05-19 16:35:00,
2013-05-19 11:40:00,79.6,65.9,29.79,SSE,158,3.1,7.4,63,0.00,,,0.00,WUHU216HW,2013-05-19 16:40:00,
2013-05-19 11:45:00,80.6,66.0,29.79,SW,225,4.3,7.4,61,0.00,,,0.00,WUHU216HW,2013-05-19 16:45:00,
2013-05-19 11:50:00,81.2,65.5,29.80,SSE,158,5.8,7.6,59,0.00,,,0.00,WUHU216HW,2013-05-19 16:50:00,
2013-05-19 11:55:00,81.9,66.2,29.79,NE,45,5.6,7.6,59,0.00,,,0.00,WUHU216HW,2013-05-19 16:55:00,
2013-05-19 12:00:00,82.4,65.6,29.79,ESE,113,4.9,7.4,57,0.00,,,0.00,WUHU216HW,2013-05-19 17:00:00,
2013-05-19 12:05:00,82.8,64.9,29.79,South,180,8.3,8.3,55,0.00,,,0.00,WUHU216HW,2013-05-19 17:05:00,
2013-05-19 12:10:00,83.2,65.8,29.79,South,180,6.9,8.3,56,0.00,,,0.00,WUHU216HW,2013-05-19 17:10:00,
2013-05-19 12:15:00,83.7,65.3,29.79,SSE,158,6.0,11.2,54,0.00,,,0.00,WUHU216HW,2013-05-19 17:15:00,
2013-05-19 12:20:00,83.9,66.0,29.79,SE,135,6.0,11.2,55,0.00,,,0.00,WUHU216HW,2013-05-19 17:20:00,
2013-05-19 12:25:00,83.7,64.7,29.79,SSE,158,8.9,9.2,53,0.00,,,0.00,WUHU216HW,2013-05-19 17:25:00,
2013-05-19 12:30:00,83.3,64.4,29.78,South,180,6.9,12.1,53,0.00,,,0.00,WUHU216HW,2013-05-19 17:30:00,
2013-05-19 12:35:00,83.2,64.7,29.78,SE,135,6.3,12.1,54,0.00,,,0.00,WUHU216HW,2013-05-19 17:35:00,
2013-05-19 12:40:00,83.5,65.6,29.78,East,90,6.7,8.9,55,0.00,,,0.00,WUHU216HW,2013-05-19 17:40:00,
2013-05-19 12:45:00,83.9,66.5,29.78,South,180,11.6,13.0,56,0.00,,,0.00,WUHU216HW,2013-05-19 17:45:00,
2013-05-19 12:50:00,84.4,65.4,29.79,SSE,158,7.2,13.0,53,0.00,,,0.00,WUHU216HW,2013-05-19 17:50:00,
2013-05-19 12:55:00,85.1,66.6,29.79,South,180,7.2,13.2,54,0.00,,,0.00,WUHU216HW,2013-05-19 17:55:00,
2013-05-19 13:00:00,86.4,67.2,29.79,WSW,248,6.0,13.2,53,0.00,,,0.00,WUHU216HW,2013-05-19 18:00:00,
2013-05-19 13:05:00,87.1,66.9,29.79,SW,225,6.7,9.8,51,0.00,,,0.00,WUHU216HW,2013-05-19 18:05:00,
2013-05-19 13:10:00,86.8,66.0,29.80,SSE,158,7.6,11.6,50,0.00,,,0.00,WUHU216HW,2013-05-19 18:10:00,
2013-05-19 13:15:00,86.8,67.1,29.80,SSW,203,3.6,12.8,52,0.00,,,0.00,WUHU216HW,2013-05-19 18:15:00,
2013-05-19 13:20:00,87.1,65.7,29.80,South,180,10.5,12.8,49,0.00,,,0.00,WUHU216HW,2013-05-19 18:20:00,
2013-05-19 13:25:00,87.1,66.3,29.79,South,180,3.4,11.6,50,0.00,,,0.00,WUHU216HW,2013-05-19 18:25:00,
2013-05-19 13:30:00,87.8,66.3,29.79,SSE,158,2.7,10.3,49,0.00,,,0.00,WUHU216HW,2013-05-19 18:30:00,
2013-05-19 13:35:00,87.8,65.1,29.80,SE,135,9.2,9.2,47,0.00,,,0.00,WUHU216HW,2013-05-19 18:35:00,
2013-05-19 13:40:00,87.7,65.5,29.80,SW,225,6.9,12.1,48,0.00,,,0.00,WUHU216HW,2013-05-19 18:40:00,
2013-05-19 13:45:00,88.0,65.9,29.80,South,180,9.4,12.1,48,0.00,,,0.00,WUHU216HW,2013-05-19 18:45:00,
2013-05-19 13:50:00,88.6,66.3,29.80,SSW,203,7.4,11.0,48,0.00,,,0.00,WUHU216HW,2013-05-19 18:50:00,
2013-05-19 13:55:00,88.7,66.5,29.80,ESE,113,5.4,10.1,48,0.00,,,0.00,WUHU216HW,2013-05-19 18:55:00,
2013-05-19 14:00:00,89.1,65.5,29.81,South,180,6.3,10.3,46,0.00,,,0.00,WUHU216HW,2013-05-19 19:00:00,
2013-05-19 14:05:00,89.5,66.5,29.80,South,180,5.4,12.1,47,0.00,,,0.00,WUHU216HW,2013-05-19 19:05:00,
2013-05-19 14:10:00,90.4,66.6,29.80,South,180,7.2,12.1,46,0.00,,,0.00,WUHU216HW,2013-05-19 19:10:00,
2013-05-19 14:15:00,90.5,65.5,29.79,SSW,203,9.2,11.2,44,0.00,,,0.00,WUHU216HW,2013-05-19 19:15:00,
2013-05-19 14:20:00,90.4,66.6,29.78,SW,225,2.9,11.2,46,0.00,,,0.00,WUHU216HW,2013-05-19 19:20:00,
2013-05-19 14:25:00,90.9,66.5,29.79,SSW,203,7.4,11.0,45,0.00,,,0.00,WUHU216HW,2013-05-19 19:25:00,
2013-05-19 14:30:00,91.1,66.6,29.79,SSE,158,8.1,11.0,45,0.00,,,0.00,WUHU216HW,2013-05-19 19:30:00,
2013-05-19 14:35:00,92.0,66.8,29.79,South,180,5.1,8.7,44,0.00,,,0.00,WUHU216HW,2013-05-19 19:35:00,
2013-05-19 14:40:00,91.8,66.6,29.79,SSW,203,4.7,8.7,44,0.00,,,0.00,WUHU216HW,2013-05-19 19:40:00,
2013-05-19 14:45:00,91.6,66.5,29.79,West,270,2.9,10.5,44,0.00,,,0.00,WUHU216HW,2013-05-19 19:45:00,
2013-05-19 14:50:00,91.8,65.3,29.79,SSW,203,6.7,10.5,42,0.00,,,0.00,WUHU216HW,2013-05-19 19:50:00,
2013-05-19 14:55:00,91.4,64.4,29.79,ESE,113,6.3,11.4,41,0.00,,,0.00,WUHU216HW,2013-05-19 19:55:00,
2013-05-19 15:00:00,91.4,65.7,29.79,SSW,203,6.9,11.4,43,0.00,,,0.00,WUHU216HW,2013-05-19 20:00:00,
2013-05-19 15:05:00,90.0,64.4,29.79,SSW,203,5.4,9.2,43,0.00,,,0.00,WUHU216HW,2013-05-19 20:05:00,
2013-05-19 15:10:00,88.2,63.5,29.80,SW,225,4.0,12.1,44,0.00,,,0.00,WUHU216HW,2013-05-19 20:10:00,
2013-05-19 15:15:00,86.6,63.9,29.79,SW,225,6.3,12.1,47,0.00,,,0.00,WUHU216HW,2013-05-19 20:15:00,
2013-05-19 15:20:00,84.6,59.7,29.81,WSW,248,12.8,13.4,43,0.00,,,0.00,WUHU216HW,2013-05-19 20:20:00,
2013-05-19 15:25:00,77.8,60.8,29.81,SSW,203,4.9,15.2,56,0.04,,,0.04,WUHU216HW,2013-05-19 20:25:00,
2013-05-19 15:30:00,74.3,60.5,29.80,West,270,5.6,15.2,62,0.05,,,0.05,WUHU216HW,2013-05-19 20:30:00,
2013-05-19 15:35:00,72.4,60.3,29.80,SW,225,3.1,9.4,66,0.06,,,0.06,WUHU216HW,2013-05-19 20:35:00,
2013-05-19 15:40:00,71.3,59.8,29.79,SSW,203,1.8,6.0,67,0.06,,,0.06,WUHU216HW,2013-05-19 20:40:00,
2013-05-19 15:45:00,70.9,59.4,29.79,South,180,2.5,4.5,67,0.06,,,0.06,WUHU216HW,2013-05-19 20:45:00,
2013-05-19 15:50:00,70.4,59.7,29.79,NE,45,1.3,3.4,69,0.06,,,0.06,WUHU216HW,2013-05-19 20:50:00,
2013-05-19 15:55:00,69.8,59.6,29.78,NE,45,0.2,2.0,70,0.07,,,0.07,WUHU216HW,2013-05-19 20:55:00,
2013-05-19 16:00:00,69.5,60.0,29.77,ENE,68,0.0,1.3,72,0.07,,,0.07,WUHU216HW,2013-05-19 21:00:00,
2013-05-19 16:05:00,69.3,61.0,29.76,SSW,203,1.3,1.3,75,0.07,,,0.07,WUHU216HW,2013-05-19 21:05:00,
2013-05-19 16:10:00,69.1,61.6,29.73,SW,225,3.6,4.9,77,0.07,,,0.07,WUHU216HW,2013-05-19 21:10:00,
2013-05-19 16:15:00,69.1,60.9,29.74,NNW,338,1.1,4.9,75,0.07,,,0.07,WUHU216HW,2013-05-19 21:15:00,
2013-05-19 16:20:00,69.5,60.8,29.73,NNE,23,1.6,3.6,74,0.04,,,0.07,WUHU216HW,2013-05-19 21:20:00,
2013-05-19 16:25:00,70.6,61.8,29.74,SW,225,4.0,4.0,74,0.03,,,0.07,WUHU216HW,2013-05-19 21:25:00,
2013-05-19 16:30:00,71.6,62.1,29.73,SSW,203,2.0,5.8,72,0.01,,,0.07,WUHU216HW,2013-05-19 21:30:00,
2013-05-19 16:35:00,72.7,63.6,29.73,South,180,1.1,5.8,73,0.01,,,0.07,WUHU216HW,2013-05-19 21:35:00,
2013-05-19 16:40:00,74.2,64.2,29.73,SW,225,1.1,2.9,71,0.01,,,0.07,WUHU216HW,2013-05-19 21:40:00,
2013-05-19 16:45:00,75.2,63.1,29.72,SSW,203,1.8,3.4,66,0.01,,,0.07,WUHU216HW,2013-05-19 21:45:00,
2013-05-19 16:50:00,76.3,64.1,29.72,SSE,158,1.8,4.0,66,0.01,,,0.07,WUHU216HW,2013-05-19 21:50:00,
2013-05-19 16:55:00,77.8,65.1,29.72,ESE,113,2.9,4.5,65,0.00,,,0.07,WUHU216HW,2013-05-19 21:55:00,
2013-05-19 17:00:00,78.3,63.8,29.72,South,180,2.5,4.5,61,0.00,,,0.07,WUHU216HW,2013-05-19 22:00:00,
2013-05-19 17:05:00,78.8,63.4,29.72,WSW,248,1.6,4.3,59,0.00,,,0.07,WUHU216HW,2013-05-19 22:05:00,
2013-05-19 17:10:00,79.6,64.5,29.72,SSW,203,1.3,3.4,60,0.00,,,0.07,WUHU216HW,2013-05-19 22:10:00,
2013-05-19 17:15:00,79.9,64.4,29.72,SE,135,1.8,3.4,59,0.00,,,0.07,WUHU216HW,2013-05-19 22:15:00,
2013-05-19 17:20:00,80.3,64.7,29.71,SW,225,1.8,3.1,59,0.00,,,0.07,WUHU216HW,2013-05-19 22:20:00,
2013-05-19 17:25:00,80.3,64.2,29.71,South,180,1.6,4.7,58,0.00,,,0.07,WUHU216HW,2013-05-19 22:25:00,
2013-05-19 17:30:00,80.5,63.8,29.71,SSW,203,2.0,4.7,57,0.00,,,0.07,WUHU216HW,2013-05-19 22:30:00,
2013-05-19 17:35:00,80.5,64.4,29.71,South,180,2.5,3.6,58,0.00,,,0.07,WUHU216HW,2013-05-19 22:35:00,
2013-05-19 17:40:00,80.8,64.6,29.71,South,180,1.3,2.9,58,0.00,,,0.07,WUHU216HW,2013-05-19 22:40:00,
2013-05-19 17:45:00,81.0,64.3,29.71,SSW,203,3.1,3.6,57,0.01,,,0.08,WUHU216HW,2013-05-19 22:45:00,
2013-05-19 17:50:00,80.8,64.1,29.71,South,180,1.1,3.6,57,0.01,,,0.08,WUHU216HW,2013-05-19 22:50:00,
2013-05-19 17:55:00,80.6,63.5,29.71,ESE,113,2.7,3.4,56,0.01,,,0.08,WUHU216HW,2013-05-19 22:55:00,
2013-05-19 18:00:00,80.6,64.0,29.71,SSW,203,2.9,4.0,57,0.01,,,0.08,WUHU216HW,2013-05-19 23:00:00,
2013-05-19 18:05:00,80.8,64.1,29.71,South,180,1.6,4.0,57,0.01,,,0.08,WUHU216HW,2013-05-19 23:05:00,
2013-05-19 18:10:00,80.8,64.1,29.71,SSE,158,1.1,4.7,57,0.01,,,0.08,WUHU216HW,2013-05-19 23:10:00,
2013-05-19 18:15:00,81.0,64.8,29.71,South,180,1.8,4.7,58,0.01,,,0.08,WUHU216HW,2013-05-19 23:15:00,
2013-05-19 18:20:00,81.0,64.8,29.71,SSE,158,3.4,4.7,58,0.01,,,0.08,WUHU216HW,2013-05-19 23:20:00,
2013-05-19 18:25:00,81.0,64.3,29.71,South,180,2.5,4.7,57,0.01,,,0.08,WUHU216HW,2013-05-19 23:25:00,
2013-05-19 18:30:00,81.0,64.8,29.71,SE,135,2.7,4.5,58,0.01,,,0.08,WUHU216HW,2013-05-19 23:30:00,
2013-05-19 18:35:00,81.0,64.3,29.70,South,180,2.5,4.5,57,0.01,,,0.08,WUHU216HW,2013-05-19 23:35:00,
2013-05-19 18:40:00,80.8,64.1,29.70,SW,225,3.8,4.0,57,0.00,,,0.08,WUHU216HW,2013-05-19 23:40:00,
2013-05-19 18:45:00,80.6,64.0,29.70,South,180,1.1,4.0,57,0.00,,,0.08,WUHU216HW,2013-05-19 23:45:00,
2013-05-19 18:50:00,80.6,64.4,29.70,South,180,1.8,3.8,58,0.00,,,0.08,WUHU216HW,2013-05-19 23:50:00,
2013-05-19 18:55:00,80.6,64.4,29.70,East,90,3.1,3.4,58,0.00,,,0.08,WUHU216HW,2013-05-19 23:55:00,
2013-05-19 19:00:00,80.6,64.4,29.70,SE,135,3.4,4.9,58,0.00,,,0.08,WUHU216HW,2013-05-20 00:00:00,
2013-05-19 19:05:00,80.6,64.4,29.70,SSE,158,3.4,4.9,58,0.00,,,0.08,WUHU216HW,2013-05-20 00:05:00,
2013-05-19 19:10:00,80.5,64.4,29.70,SE,135,2.7,4.9,58,0.00,,,0.08,WUHU216HW,2013-05-20 00:10:00,
2013-05-19 19:15:00,80.5,64.8,29.70,East,90,1.3,4.5,59,0.00,,,0.08,WUHU216HW,2013-05-20 00:15:00,
2013-05-19 19:20:00,80.5,64.8,29.70,SE,135,3.6,4.5,59,0.00,,,0.08,WUHU216HW,2013-05-20 00:20:00,
2013-05-19 19:25:00,80.3,64.7,29.71,SSE,158,3.4,5.4,59,0.00,,,0.08,WUHU216HW,2013-05-20 00:25:00,
2013-05-19 19:30:00,80.1,64.5,29.71,SSE,158,2.9,5.4,59,0.00,,,0.08,WUHU216HW,2013-05-20 00:30:00,
2013-05-19 19:35:00,80.1,65.1,29.71,SE,135,2.5,4.7,60,0.00,,,0.08,WUHU216HW,2013-05-20 00:35:00,
2013-05-19 19:40:00,79.6,64.5,29.71,SE,135,3.8,4.5,60,0.00,,,0.08,WUHU216HW,2013-05-20 00:40:00,
2013-05-19 19:45:00,79.6,64.5,29.71,SSE,158,4.0,5.4,60,0.00,,,0.08,WUHU216HW,2013-05-20 00:45:00,
2013-05-19 19:50:00,79.4,63.9,29.71,ENE,68,2.9,6.0,59,0.00,,,0.08,WUHU216HW,2013-05-20 00:50:00,
2013-05-19 19:55:00,79.0,63.5,29.70,South,180,1.3,6.0,59,0.00,,,0.08,WUHU216HW,2013-05-20 00:55:00,
2013-05-19 20:00:00,78.7,63.2,29.70,SW,225,3.6,4.7,59,0.00,,,0.08,WUHU216HW,2013-05-20 01:00:00,
2013-05-19 20:05:00,78.5,63.0,29.71,SSE,158,2.5,3.8,59,0.00,,,0.08,WUHU216HW,2013-05-20 01:05:00,
2013-05-19 20:10:00,78.3,63.4,29.70,SSW,203,2.0,5.6,60,0.00,,,0.08,WUHU216HW,2013-05-20 01:10:00,
2013-05-19 20:15:00,78.1,63.2,29.71,SE,135,2.9,5.6,60,0.00,,,0.08,WUHU216HW,2013-05-20 01:15:00,
2013-05-19 20:20:00,77.9,63.0,29.70,SW,225,2.7,5.4,60,0.00,,,0.08,WUHU216HW,2013-05-20 01:20:00,
2013-05-19 20:25:00,77.6,62.6,29.70,South,180,2.0,4.0,60,0.00,,,0.08,WUHU216HW,2013-05-20 01:25:00,
2013-05-19 20:30:00,77.4,62.9,29.70,ESE,113,4.5,4.5,61,0.00,,,0.08,WUHU216HW,2013-05-20 01:30:00,
2013-05-19 20:35:00,77.4,62.9,29.70,SSE,158,3.6,4.7,61,0.00,,,0.08,WUHU216HW,2013-05-20 01:35:00,
2013-05-19 20:40:00,77.2,63.2,29.70,South,180,3.4,6.9,62,0.00,,,0.08,WUHU216HW,2013-05-20 01:40:00,
2013-05-19 20:45:00,77.0,63.5,29.70,SSE,158,3.6,6.9,63,0.00,,,0.08,WUHU216HW,2013-05-20 01:45:00,
2013-05-19 20:50:00,76.9,63.7,29.70,South,180,4.7,5.6,64,0.00,,,0.08,WUHU216HW,2013-05-20 01:50:00,
2013-05-19 20:55:00,76.7,64.0,29.70,SE,135,2.7,6.5,65,0.00,,,0.08,WUHU216HW,2013-05-20 01:55:00,
2013-05-19 21:00:00,76.5,63.8,29.70,South,180,1.1,6.9,65,0.00,,,0.08,WUHU216HW,2013-05-20 02:00:00,
2013-05-19 21:05:00,76.1,63.9,29.70,SE,135,1.1,6.9,66,0.00,,,0.08,WUHU216HW,2013-05-20 02:05:00,
2013-05-19 21:10:00,76.0,63.7,29.68,SW,225,3.4,5.4,66,0.00,,,0.08,WUHU216HW,2013-05-20 02:10:00,
2013-05-19 21:15:00,75.8,63.6,29.68,SSE,158,2.5,5.4,66,0.00,,,0.08,WUHU216HW,2013-05-20 02:15:00,
2013-05-19 21:20:00,75.6,63.8,29.69,South,180,3.4,6.0,67,0.00,,,0.08,WUHU216HW,2013-05-20 02:20:00,
2013-05-19 21:25:00,75.6,63.5,29.70,South,180,4.0,6.0,66,0.00,,,0.08,WUHU216HW,2013-05-20 02:25:00,
2013-05-19 21:30:00,75.6,63.5,29.70,South,180,3.6,6.9,66,0.00,,,0.08,WUHU216HW,2013-05-20 02:30:00,
2013-05-19 21:35:00,75.6,63.5,29.70,South,180,4.0,6.9,66,0.00,,,0.08,WUHU216HW,2013-05-20 02:35:00,
2013-05-19 21:40:00,75.8,63.6,29.70,ESE,113,8.3,8.3,66,0.00,,,0.08,WUHU216HW,2013-05-20 02:40:00,
2013-05-19 21:45:00,75.8,63.6,29.68,SSE,158,6.7,9.2,66,0.00,,,0.08,WUHU216HW,2013-05-20 02:45:00,
2013-05-19 21:50:00,75.6,63.5,29.69,South,180,8.9,9.2,66,0.00,,,0.08,WUHU216HW,2013-05-20 02:50:00,
2013-05-19 21:55:00,75.4,63.3,29.70,SSW,203,8.5,9.2,66,0.00,,,0.08,WUHU216HW,2013-05-20 02:55:00,
2013-05-19 22:00:00,75.2,62.2,29.68,SE,135,10.5,10.5,64,0.00,,,0.08,WUHU216HW,2013-05-20 03:00:00,
2013-05-19 22:05:00,74.9,61.5,29.68,East,90,2.5,10.5,63,0.00,,,0.08,WUHU216HW,2013-05-20 03:05:00,
2013-05-19 22:10:00,74.5,60.2,29.67,WSW,248,2.2,7.2,61,0.00,,,0.08,WUHU216HW,2013-05-20 03:10:00,
2013-05-19 22:15:00,73.8,59.5,29.68,SSW,203,5.6,7.8,61,0.00,,,0.08,WUHU216HW,2013-05-20 03:15:00,
2013-05-19 22:20:00,73.3,59.0,29.67,SSW,203,6.0,7.8,61,0.00,,,0.08,WUHU216HW,2013-05-20 03:20:00,
2013-05-19 22:25:00,72.7,59.0,29.68,South,180,3.8,8.7,62,0.00,,,0.08,WUHU216HW,2013-05-20 03:25:00,
2013-05-19 22:30:00,72.2,58.9,29.68,SSE,158,4.3,9.8,63,0.00,,,0.08,WUHU216HW,2013-05-20 03:30:00,
2013-05-19 22:35:00,71.6,58.3,29.67,South,180,7.2,9.8,63,0.00,,,0.08,WUHU216HW,2013-05-20 03:35:00,
2013-05-19 22:40:00,71.3,58.1,29.66,SSE,158,4.3,9.8,63,0.00,,,0.08,WUHU216HW,2013-05-20 03:40:00,
2013-05-19 22:45:00,70.9,57.7,29.66,SE,135,4.9,8.5,63,0.00,,,0.08,WUHU216HW,2013-05-20 03:45:00,
2013-05-19 22:50:00,70.9,57.2,29.64,SSE,158,2.9,9.2,62,0.00,,,0.08,WUHU216HW,2013-05-20 03:50:00,
2013-05-19 22:55:00,71.1,57.4,29.65,South,180,3.4,9.2,62,0.00,,,0.08,WUHU216HW,2013-05-20 03:55:00,
2013-05-19 23:00:00,71.3,57.2,29.65,South,180,1.6,4.9,61,0.00,,,0.08,WUHU216HW,2013-05-20 04:00:00,
2013-05-19 23:01:00,71.3,57.2,29.65,South,180,1.6,4.9,61,0.00,,,0.08,WUHU216HW,2013-05-20 04:01:00,
2013-05-19 23:06:00,71.3,57.2,29.64,WSW,248,1.1,4.9,61,0.00,,,0.08,WUHU216HW,2013-05-20 04:06:00,
2013-05-19 23:11:00,71.3,57.6,29.65,South,180,3.1,4.3,62,0.00,,,0.08,WUHU216HW,2013-05-20 04:11:00,
2013-05-19 23:16:00,71.3,57.6,29.65,SSW,203,3.1,6.0,62,0.00,,,0.08,WUHU216HW,2013-05-20 04:16:00,
2013-05-19 23:21:00,71.1,57.9,29.65,South,180,1.8,6.0,63,0.00,,,0.08,WUHU216HW,2013-05-20 04:21:00,
2013-05-19 23:26:00,71.1,57.9,29.66,WSW,248,4.0,5.6,63,0.00,,,0.08,WUHU216HW,2013-05-20 04:26:00,
2013-05-19 23:31:00,70.9,57.7,29.66,South,180,2.0,6.0,63,0.00,,,0.08,WUHU216HW,2013-05-20 04:31:00,
2013-05-19 23:36:00,70.9,57.7,29.66,South,180,5.6,6.9,63,0.00,,,0.08,WUHU216HW,2013-05-20 04:36:00,
2013-05-19 23:41:00,70.6,58.2,29.66,South,180,6.7,6.9,65,0.00,,,0.08,WUHU216HW,2013-05-20 04:41:00,
2013-05-19 23:46:00,70.2,57.9,29.65,South,180,6.5,8.3,65,0.00,,,0.08,WUHU216HW,2013-05-20 04:46:00,
2013-05-19 23:51:00,69.8,57.5,29.65,South,180,3.4,8.5,65,0.00,,,0.08,WUHU216HW,2013-05-20 04:51:00,
2013-05-19 23:56:00,69.8,57.5,29.65,SE,135,8.5,8.7,65,0.00,,,0.08,WUHU216HW,2013-05-20 04:56:00,